Regional Weather Roundup
Issued by NWS

Home | Current Version | Previous Version | Graphics & Text | Print | Product List | Glossary On
Versions: 1 2 3 4 5 6 7 8 9 10 11 12 13 14 15 16 17 18 19 20 21 22 23 24 25 26 27 28 29 30 31 32 33 34 35 36 37 38 39 40 41 42 43 44 45 46 47 48 49 50
000
ASUS44 KMEG 161210
RWRTN
TENNESSEE HOURLY STATE WEATHER ROUNDUP
NATIONAL WEATHER SERVICE MEMPHIS TN
700 AM CDT WED AUG 16 2017

TNZ002-004-019-021-049-052-054-088>092-161300-
WEST TENNESSEE

CITY           SKY/WX    TMP DP  RH WIND       PRES   REMARKS
MEMPHIS INTL   CLOUDY    76  74  93 S8        30.01R
NWS MEMPHIS      N/A     76 N/A N/A MISG        N/A
JACKSON        PTCLDY    75  75 100 S6        30.01R
DYERSBURG      MOCLDY    74  73  97 S6        30.00R FOG
COVINGTON      CLEAR     75  73  94 S5        30.00R
UNION CITY     PTCLDY    75  73  94 SE7       29.98S
PARIS          CLOUDY    73  73 100 S5        30.00S
LEXINGTON      MOCLDY    72  72 100 CALM      30.02S FOG
SELMER         CLOUDY    73  73 100 VRB6      30.04R FOG
SAVANNAH       CLOUDY    75  75 100 S6        30.03R
$$

TNZ008-025-027-028-033-062-065-066-161300-
NORTH MIDDLE TENNESSEE

CITY           SKY/WX    TMP DP  RH WIND       PRES   REMARKS
NASHVILLE      HVY RAIN  74  72  93 S10       30.05R FOG
PORTLAND       CLEAR     72  72 100 S6        30.03S
CLARKSVILLE    MOCLDY    72  70  93 CALM      30.02R
SMYRNA         CLOUDY    73  73 100 E5        30.07R
COOKEVILLE     CLOUDY    72  72 100 CALM      30.07R
GALLATIN       CLOUDY    73  73 100 CALM      30.06R FOG
CROSSVILLE     MOSUNNY   69  68  96 CALM      30.12S
$$

TNZ061-075-076-078-094-096-097-161300-
SOUTH MIDDLE TENNESSEE

CITY           SKY/WX    TMP DP  RH WIND       PRES   REMARKS
FAYETTEVILLE   CLOUDY    75  73  94 S3        30.07S
TULLAHOMA      CLOUDY    72  72 100 S5        30.09S
WINCHESTER     SUNNY     72  72 100 SE5       30.09R
MCMINNVILLE    SUNNY     72  72 100 SW3       30.08R
COLUMBIA       CLOUDY    73  73 100 CALM      30.03R
SHELBYVILLE    CLOUDY    73  73 100 VRB3      30.06S FOG
$$

TNZ017-018-042-046-047-161300-
NORTHEAST TENNESSEE

CITY           SKY/WX    TMP DP  RH WIND       PRES   REMARKS
TRI CITIES     PTSUNNY   70  70 100 CALM      30.11R
ELIZABETHTON   CLOUDY    68  68 100 CALM      30.12R
$$

TNZ012-013-036-069-073-074-161300-
CENTRAL EAST TENNESSEE

CITY           SKY/WX    TMP DP  RH WIND       PRES   REMARKS
KNOXVILLE      MOSUNNY   72  70  93 SW3       30.07R
OAK RIDGE      CLOUDY    73  70  90 CALM      30.09R
DOWNTOWN KNOXV MOSUNNY   72  72 100 CALM      30.07R
GATLINBURG     SUNNY     70  68  94 CALM      30.08R
MORRISTOWN     PTSUNNY   72  72 100 CALM      30.09R
JACKSBORO      FOG       70  70 100 CALM      30.12R VSB 1
$$

TNZ083-085-099-161300-
SOUTHEAST TENNESSEE

CITY           SKY/WX    TMP DP  RH WIND       PRES   REMARKS
CHATTANOOGA    MOSUNNY   74  71  91 CALM      30.08R
DAYTON         FOG       73  73 100 CALM      30.07R VSB 0
$$

SKY/WX REPORTED AS FAIR MEANS FEW OR NO CLOUDS BELOW
12 THOUSAND FEET.




USA.gov is the U.S. government's official web portal to all federal, state and local government web resources and services.